Date String (YYYY-MM-DD hh:mm:ss) UTC,Instrument flags,Ambient pressure (hPa),Sample flow (lpm),Bypass flow (lpm),Sample temperature (°C),Ambient temperature (°C),ASC tube jacket temperature (°C),LED temperature (°C),Box temperature (°C),Sample RH (%),Span deviation,Mass concentration (μg/m³),Mass concentration (μg/m³),Mass concentration (μg/m³)
DateTimeUTC,F1_M11,P_M11,Q1_M11,Q2_M11,T1_M11,T2_M11,T3_M11,T4_M11,T5_M11,U1_M11,ZSPAN_M11,X0_M11,X2_M11,X1_M11
2022-03-11 07:00:00,,0827.0,4.99,0.00,22.1,21.5,00.0,31.2,23.6,05.8,0002.5,0010.91,0008.08,0007.77
2022-03-11 07:01:00,,0826.9,5.00,0.00,22.0,21.3,00.0,31.1,23.5,05.9,0002.5,0010.86,0008.06,0007.78
2022-03-11 07:02:00,,0827.0,4.99,0.00,21.9,21.1,00.0,31.1,23.4,05.9,0002.3,0010.91,0008.10,0007.81
2022-03-11 07:03:00,,0826.9,5.01,0.00,21.9,21.6,00.0,31.1,23.5,05.9,0002.4,0011.06,0008.17,0007.84
2022-03-11 07:04:00,,0826.9,4.99,0.00,22.1,22.2,00.0,31.2,23.8,05.9,0001.7,0011.12,0008.20,0007.87
2022-03-11 07:05:00,,0826.9,5.00,0.00,22.2,22.9,00.0,31.2,24.0,05.8,0001.4,0011.16,0008.23,0007.89
2022-03-11 07:06:00,,0826.9,5.00,0.00,22.3,22.9,00.0,31.2,24.1,05.8,0001.0,0011.13,0008.23,0007.90
2022-03-11 07:07:00,,0826.8,5.00,0.00,22.2,22.4,00.0,31.2,23.9,05.8,0000.7,0011.19,0008.25,0007.90
2022-03-11 07:08:00,,0827.0,5.01,0.00,22.2,22.0,00.0,31.2,23.8,05.8,0000.3,0011.22,0008.26,0007.89
2022-03-11 07:09:00,,0826.9,4.98,0.00,22.1,21.7,00.0,31.2,23.7,05.9,0000.7,0011.25,0008.30,0007.92
2022-03-11 07:10:00,,0826.8,5.01,0.00,22.0,21.5,00.0,31.1,23.6,05.9,0000.4,0011.19,0008.31,0007.94
2022-03-11 07:11:00,,0826.8,5.00,0.00,22.0,21.2,00.0,31.1,23.4,06.0,0000.0,0011.20,0008.33,0007.96
2022-03-11 07:12:00,,0826.9,5.00,0.00,21.9,21.3,00.0,31.1,23.4,06.0,0000.2,0011.25,0008.38,0007.99
2022-03-11 07:13:00,,0826.9,5.00,0.00,22.0,21.9,00.0,31.1,23.7,06.0,0000.6,0011.22,0008.39,0008.01
2022-03-11 07:14:00,,0826.9,5.00,0.00,22.1,22.6,00.0,31.2,23.9,06.0,0000.1,0011.49,0008.43,0008.05
2022-03-11 07:15:00,,0826.9,5.01,0.00,22.3,23.0,00.0,31.2,24.1,05.9,-000.0,0011.66,0008.48,0008.08
2022-03-11 07:16:00,,0826.9,5.00,0.00,22.3,22.8,00.0,31.2,24.1,05.9,0000.0,0011.73,0008.55,0008.13
2022-03-11 07:17:00,,0826.9,5.01,0.00,22.3,22.4,00.0,31.2,24.0,05.9,0000.4,0011.77,0008.61,0008.20
2022-03-11 07:18:00,,0827.0,5.00,0.00,22.2,22.0,00.0,31.2,23.9,06.0,0000.5,0011.84,0008.66,0008.25
2022-03-11 07:19:00,,0827.0,4.99,0.00,22.1,21.7,00.0,31.2,23.8,06.0,0001.0,0011.94,0008.74,0008.32
2022-03-11 07:20:00,,0826.9,5.01,0.00,22.1,21.5,00.0,31.1,23.6,06.0,0001.3,0011.98,0008.80,0008.36
2022-03-11 07:21:00,,0826.9,5.01,0.00,22.0,21.2,00.0,31.1,23.5,06.0,0001.3,0011.97,0008.81,0008.38
2022-03-11 07:22:00,,0826.9,5.00,0.00,21.9,21.2,00.0,31.1,23.4,06.0,0001.4,0012.01,0008.80,0008.36
2022-03-11 07:23:00,,0827.0,4.98,0.00,22.0,21.8,00.0,31.1,23.6,06.0,0001.0,0012.13,0008.79,0008.34
2022-03-11 07:24:00,,0827.0,5.02,0.00,22.1,22.4,00.0,31.1,23.9,06.0,0000.4,0012.16,0008.77,0008.32
2022-03-11 07:25:00,,0827.0,5.01,0.00,22.2,22.9,00.0,31.2,24.1,05.9,0000.7,0011.88,0008.73,0008.29
2022-03-11 07:26:00,,0827.0,5.00,0.00,22.3,22.7,00.0,31.2,24.1,05.8,0000.9,0011.61,0008.63,0008.22
2022-03-11 07:27:00,,0827.0,4.99,0.00,22.3,22.4,00.0,31.2,24.0,05.8,0001.1,0011.52,0008.52,0008.12
2022-03-11 07:28:00,,0826.9,5.00,0.00,22.2,22.0,00.0,31.2,23.8,05.7,0001.1,0011.52,0008.43,0007.99
2022-03-11 07:29:00,,0826.9,5.00,0.00,22.1,21.7,00.0,31.2,23.6,05.8,0001.2,0011.45,0008.33,0007.89
2022-03-11 07:30:00,,0827.0,5.00,0.00,22.0,21.4,00.0,31.1,23.5,05.9,0000.7,0011.44,0008.27,0007.83
2022-03-11 07:31:00,,0826.9,4.99,0.00,21.9,21.2,00.0,31.1,23.4,06.0,0000.5,0011.54,0008.26,0007.83
2022-03-11 07:32:00,,0827.0,5.00,0.00,21.9,21.4,00.0,31.1,23.5,06.0,0000.8,0011.63,0008.30,0007.86
2022-03-11 07:33:00,,0827.0,5.02,0.00,22.0,22.1,00.0,31.1,23.7,06.0,0000.9,0011.65,0008.34,0007.89
2022-03-11 07:34:00,,0827.0,5.00,0.00,22.2,22.8,00.0,31.2,24.0,06.0,0001.0,0011.54,0008.33,0007.91
2022-03-11 07:35:00,,0827.0,5.00,0.00,22.3,23.0,00.0,31.2,24.1,05.9,0001.0,0011.60,0008.37,0007.95
2022-03-11 07:36:00,,0827.0,5.00,0.00,22.3,22.7,00.0,31.2,24.1,05.9,0000.8,0011.71,0008.40,0007.99
2022-03-11 07:37:00,,0826.9,4.99,0.00,22.3,22.3,00.0,31.2,24.0,06.0,0000.6,0012.00,0008.53,0008.10
2022-03-11 07:38:00,,0827.0,5.01,0.00,22.2,22.0,00.0,31.2,23.9,06.0,0000.2,0012.13,0008.68,0008.23
2022-03-11 07:39:00,,0827.0,5.00,0.00,22.1,21.7,00.0,31.2,23.7,06.0,-000.3,0012.24,0008.82,0008.39
2022-03-11 07:40:00,,0827.0,4.99,0.00,22.0,21.5,00.0,31.2,23.6,06.0,-000.4,0012.40,0008.95,0008.51
2022-03-11 07:41:00,,0827.0,5.00,0.00,22.0,21.2,00.0,31.1,23.5,06.1,-000.3,0012.70,0009.02,0008.58
2022-03-11 07:42:00,,0827.0,5.00,0.00,22.0,21.4,00.0,31.1,23.5,06.1,-000.3,0012.59,0009.02,0008.59
2022-03-11 07:43:00,,0827.0,5.01,0.00,22.1,22.0,00.0,31.1,23.7,06.1,-000.7,0012.66,0009.06,0008.59
2022-03-11 07:44:00,,0827.0,5.00,0.00,22.2,22.7,00.0,31.2,24.0,06.1,-000.7,0013.50,0009.12,0008.63
2022-03-11 07:45:00,,0827.0,5.00,0.00,22.3,23.1,00.0,31.2,24.2,06.0,-000.5,0014.11,0009.17,0008.67
2022-03-11 07:46:00,,0827.0,5.00,0.00,22.4,22.8,00.0,31.2,24.2,06.0,-000.4,0014.39,0009.16,0008.67
2022-03-11 07:47:00,,0827.0,4.99,0.00,22.3,22.5,00.0,31.2,24.1,06.0,-000.6,0014.57,0009.17,0008.65
2022-03-11 07:48:00,,0827.0,5.01,0.00,22.3,22.1,00.0,31.2,23.9,06.0,-000.5,0014.36,0009.14,0008.64
2022-03-11 07:49:00,,0827.0,5.00,0.00,22.2,21.8,00.0,31.2,23.8,06.0,-000.5,0014.33,0009.13,0008.64
2022-03-11 07:50:00,,0827.0,5.00,0.00,22.1,21.6,00.0,31.2,23.7,06.0,-000.4,0014.32,0009.08,0008.61
2022-03-11 07:51:00,,0827.1,5.00,0.00,22.1,21.4,00.0,31.2,23.6,06.1,-000.6,0014.45,0009.07,0008.61
2022-03-11 07:52:00,,0827.1,5.00,0.00,22.0,21.4,00.0,31.2,23.5,06.1,-000.6,0014.31,0009.10,0008.63
2022-03-11 07:53:00,,0827.2,4.99,0.00,22.1,22.0,00.0,31.2,23.8,06.1,-000.4,0014.35,0009.15,0008.66
2022-03-11 07:54:00,,0827.4,5.00,0.00,22.2,22.7,00.0,31.2,24.0,06.1,0000.0,0014.34,0009.18,0008.69
2022-03-11 07:55:00,,0827.5,5.02,0.00,22.4,23.1,00.0,31.3,24.2,06.1,0000.5,0013.83,0009.17,0008.70
2022-03-11 07:56:00,,0827.2,4.99,0.00,22.4,22.9,00.0,31.3,24.2,06.1,0000.5,0013.08,0009.16,0008.69
2022-03-11 07:57:00,,0827.1,4.99,0.00,22.3,22.5,00.0,31.3,24.1,06.1,0000.5,0012.88,0009.20,0008.70
2022-03-11 07:58:00,,0827.1,5.01,0.00,22.3,22.1,00.0,31.3,23.9,06.1,0000.6,0012.80,0009.26,0008.75
2022-03-11 07:59:00,,0827.1,5.00,0.00,22.2,21.8,00.0,31.2,23.7,06.1,0000.5,0012.89,0009.28,0008.77
